| time (UTC) | temp C | wind direction | speed KPH | gust KPH | rain 1hr cm | rain 24hr cm | rain mn cm | humidity % | barometer mb |
| 20260902141715 | 26 | 53 | 3.2 | 3.2 | 0.00 | 0.00 | 0.00 | 82 | 1024.3 |
| 20260902141211 | 26 | 68 | 1.6 | 3.2 | 0.00 | 0.00 | 0.00 | 81 | 1024.0 |
| 20260902140706 | 26 | 54 | 1.6 | 3.2 | 0.00 | 0.00 | 0.00 | 83 | 1024.2 |
| 20260902140200 | 26 | 17 | 0.0 | 1.6 | 0.00 | 0.00 | 0.00 | 84 | 1024.0 |
| 20260902135659 | 25 | 189 | 0.0 | 0.0 | 0.00 | 0.00 | 0.00 | 86 | 1024.2 |
| 20260902135155 | 24 | 114 | 1.6 | 3.2 | 0.00 | 0.00 | 0.00 | 89 | 1024.2 |
| 20260902134650 | 24 | 179 | 1.6 | 1.6 | 0.00 | 0.00 | 0.00 | 89 | 1024.3 |
| 20260902134150 | 23 | 226 | 1.6 | 3.2 | 0.00 | 0.00 | 0.00 | 90 | 1024.2 |
| 20260902133645 | 23 | 183 | 0.0 | 1.6 | 0.00 | 0.00 | 0.00 | 88 | 1024.2 |
| 20260902133139 | 23 | 191 | 1.6 | 1.6 | 0.00 | 0.00 | 0.00 | 89 | 1024.1 |
| 20260902132635 | 24 | 185 | 3.2 | 4.8 | 0.00 | 0.00 | 0.00 | 87 | 1024.1 |
| 20260902132130 | 24 | 197 | 3.2 | 4.8 | 0.00 | 0.00 | 0.00 | 87 | 1024.1 |
| 20260902131626 | 23 | 121 | 0.0 | 3.2 | 0.00 | 0.00 | 0.00 | 86 | 1024.1 |
| 20260902131121 | 23 | 206 | 0.0 | 1.6 | 0.00 | 0.00 | 0.00 | 91 | 1024.3 |
| 20260902130617 | 23 | 228 | 1.6 | 3.2 | 0.00 | 0.00 | 0.00 | 89 | 1024.2 |
| 20260902130117 | 23 | 221 | 0.0 | 1.6 | 0.00 | 0.00 | 0.00 | 89 | 1024.2 |
| 20260902125613 | 23 | 139 | 1.6 | 3.2 | 0.00 | 0.00 | 0.00 | 89 | 1024.0 |
| 20260902125108 | 23 | 245 | 0.0 | 3.2 | 0.00 | 0.00 | 0.00 | 89 | 1023.9 |
| 20260902124605 | 22 | 256 | 1.6 | 4.8 | 0.00 | 0.00 | 0.00 | 91 | 1024.2 |
| 20260902124105 | 22 | 240 | 1.6 | 3.2 | 0.00 | 0.00 | 0.00 | 92 | 1024.3 |
| 20260902123600 | 22 | 195 | 0.0 | 1.6 | 0.00 | 0.00 | 0.00 | 94 | 1024.0 |
| 20260902123056 | 21 | 256 | 1.6 | 3.2 | 0.00 | 0.00 | 0.00 | 94 | 1024.1 |
| 20260902122555 | 21 | 183 | 3.2 | 11.3 | 0.00 | 0.00 | 0.00 | 94 | 1024.1 |
| 20260902122051 | 20 | 119 | 3.2 | 6.4 | 0.00 | 0.00 | 0.00 | 96 | 1023.9 |
| 20260902121546 | 20 | 117 | 0.0 | 0.0 | 0.00 | 0.00 | 0.00 | 98 | 1023.9 |
| 20260902121040 | 20 | 343 | 0.0 | 0.0 | 0.00 | 0.00 | 0.00 | 99 | 1024.0 |
| 20260902120536 | 20 | 71 | 0.0 | 3.2 | 0.00 | 0.00 | 0.00 | 99 | 1023.9 |
| 20260902120032 | 19 | 68 | 4.8 | 4.8 | 0.00 | 0.00 | 0.00 | 99 | 1024.0 |
| 20260902115532 | 19 | 55 | 3.2 | 3.2 | 0.00 | 0.00 | 0.00 | 99 | 1023.9 |
| 20260902115029 | 19 | 196 | 0.0 | 1.6 | 0.00 | 0.00 | 0.00 | 99 | 1024.1 |
| 20260902114525 | 19 | 68 | 3.2 | 3.2 | 0.00 | 0.00 | 0.00 | 99 | 1023.9 |
| 20260902114024 | 19 | 71 | 0.0 | 1.6 | 0.00 | 0.00 | 0.00 | 99 | 1024.0 |
| 20260902113520 | 19 | 227 | 0.0 | 1.6 | 0.00 | 0.00 | 0.00 | 99 | 1024.1 |
| 20260902113015 | 18 | 81 | 0.0 | 1.6 | 0.00 | 0.00 | 0.00 | 99 | 1024.0 |
| 20260902112510 | 18 | 83 | 0.0 | 1.6 | 0.00 | 0.00 | 0.00 | 99 | 1024.1 |
| 20260902112007 | 19 | 90 | 0.0 | 0.0 | 0.00 | 0.00 | 0.00 | 99 | 1024.0 |
| 20260902111458 | 19 | 90 | 0.0 | 0.0 | 0.00 | 0.00 | 0.00 | 99 | 1024.0 |
| 20260902110953 | 19 | 112 | 0.0 | 0.0 | 0.00 | 0.00 | 0.00 | 99 | 1024.1 |
| 20260902110448 | 19 | 90 | 0.0 | 1.6 | 0.00 | 0.00 | 0.00 | 99 | 1024.1 |
| 20260902105943 | 19 | 57 | 0.0 | 0.0 | 0.00 | 0.00 | 0.00 | 99 | 1024.1 |
| 20260902105439 | 19 | 58 | 0.0 | 1.6 | 0.00 | 0.00 | 0.00 | 99 | 1023.9 |
| 20260902104933 | 19 | 290 | 0.0 | 1.6 | 0.00 | 0.00 | 0.00 | 99 | 1023.9 |
| 20260902104429 | 19 | 233 | 0.0 | 0.0 | 0.00 | 0.00 | 0.00 | 99 | 1023.9 |
| 20260902103928 | 20 | 227 | 1.6 | 3.2 | 0.00 | 0.00 | 0.00 | 98 | 1024.0 |
| 20260902103424 | 20 | 267 | 0.0 | 3.2 | 0.00 | 0.00 | 0.00 | 97 | 1024.0 |
| 20260902102919 | 20 | 228 | 3.2 | 6.4 | 0.00 | 0.00 | 0.00 | 96 | 1023.9 |
| 20260902102416 | 20 | 242 | 3.2 | 6.4 | 0.00 | 0.00 | 0.00 | 98 | 1023.9 |
| 20260902101912 | 20 | 227 | 1.6 | 3.2 | 0.00 | 0.00 | 0.00 | 98 | 1023.9 |
| 20260902101406 | 20 | 257 | 3.2 | 6.4 | 0.00 | 0.00 | 0.00 | 99 | 1023.7 |
| 20260902100906 | 19 | 231 | 1.6 | 1.6 | 0.00 | 0.00 | 0.00 | 99 | 1023.9 |
| 20260902100359 | 20 | 162 | 0.0 | 0.0 | 0.00 | 0.00 | 0.00 | 99 | 1023.7 |
| 20260902095854 | 20 | 229 | 1.6 | 3.2 | 0.00 | 0.00 | 0.00 | 99 | 1023.9 |
| 20260902095348 | 19 | 273 | 0.0 | 1.6 | 0.00 | 0.00 | 0.00 | 99 | 1023.6 |
| 20260902094843 | 20 | 210 | 0.0 | 1.6 | 0.00 | 0.00 | 0.00 | 99 | 1023.7 |
| 20260902094340 | 20 | 251 | 1.6 | 3.2 | 0.00 | 0.00 | 0.00 | 99 | 1023.9 |
| 20260902093838 | 20 | 244 | 1.6 | 3.2 | 0.00 | 0.00 | 0.00 | 99 | 1023.7 |
| 20260902093334 | 20 | 273 | 1.6 | 3.2 | 0.00 | 0.00 | 0.00 | 98 | 1023.9 |
| 20260902092832 | 20 | 253 | 1.6 | 4.8 | 0.00 | 0.00 | 0.00 | 98 | 1023.9 |
| 20260902092328 | 20 | 255 | 1.6 | 4.8 | 0.00 | 0.00 | 0.00 | 98 | 1023.7 |
| 20260902091822 | 20 | 238 | 1.6 | 4.8 | 0.00 | 0.00 | 0.00 | 98 | 1023.9 |
| 20260902091318 | 20 | 176 | 6.4 | 9.7 | 0.00 | 0.00 | 0.00 | 97 | 1023.7 |
| 20260902090815 | 20 | 158 | 0.0 | 0.0 | 0.00 | 0.00 | 0.00 | 98 | 1023.9 |
| 20260902090314 | 20 | 204 | 0.0 | 1.6 | 0.00 | 0.00 | 0.00 | 97 | 1024.1 |
| 20260902085813 | 20 | 211 | 3.2 | 4.8 | 0.00 | 0.00 | 0.00 | 97 | 1023.9 |
| 20260902085308 | 20 | 173 | 3.2 | 4.8 | 0.00 | 0.00 | 0.00 | 98 | 1024.0 |
| 20260902084804 | 20 | 126 | 0.0 | 0.0 | 0.00 | 0.00 | 0.00 | 99 | 1024.0 |
| 20260902084300 | 20 | 105 | 0.0 | 3.2 | 0.00 | 0.00 | 0.00 | 99 | 1023.6 |
| 20260902083755 | 20 | 65 | 1.6 | 3.2 | 0.00 | 0.00 | 0.00 | 99 | 1023.7 |
| 20260902083250 | 20 | 7 | 0.0 | 0.0 | 0.00 | 0.00 | 0.00 | 99 | 1023.9 |
| 20260902082745 | 20 | 50 | 3.2 | 4.8 | 0.00 | 0.00 | 0.00 | 99 | 1023.6 |
| 20260902082242 | 20 | 32 | 1.6 | 3.2 | 0.00 | 0.00 | 0.00 | 98 | 1023.6 |
| 20260902081737 | 20 | 157 | 1.6 | 3.2 | 0.00 | 0.00 | 0.00 | 98 | 1023.7 |
| 20260902081232 | 20 | 264 | 3.2 | 3.2 | 0.00 | 0.00 | 0.00 | 98 | 1023.6 |
| 20260902080727 | 20 | 197 | 1.6 | 1.6 | 0.00 | 0.00 | 0.00 | 98 | 1023.9 |
| 20260902080225 | 20 | 203 | 0.0 | 3.2 | 0.00 | 0.00 | 0.00 | 98 | 1023.7 |
| 20260902075723 | 20 | 165 | 0.0 | 0.0 | 0.00 | 0.00 | 0.00 | 98 | 1023.9 |
| 20260902075220 | 20 | 37 | 0.0 | 0.0 | 0.00 | 0.00 | 0.00 | 98 | 1023.6 |
| 20260902074719 | 20 | 58 | 3.2 | 4.8 | 0.00 | 0.00 | 0.00 | 98 | 1023.6 |
| 20260902074215 | 20 | 60 | 1.6 | 3.2 | 0.00 | 0.00 | 0.00 | 98 | 1023.6 |
| 20260902073710 | 20 | 250 | 3.2 | 4.8 | 0.00 | 0.00 | 0.00 | 98 | 1023.6 |
| 20260902073206 | 20 | 128 | 0.0 | 0.0 | 0.00 | 0.00 | 0.00 | 98 | 1023.4 |
| 20260902072702 | 20 | 70 | 0.0 | 0.0 | 0.00 | 0.00 | 0.00 | 98 | 1023.6 |
| 20260902072158 | 20 | 49 | 1.6 | 3.2 | 0.00 | 0.00 | 0.00 | 98 | 1023.6 |
| 20260902071654 | 20 | 114 | 0.0 | 1.6 | 0.00 | 0.00 | 0.00 | 98 | 1023.6 |
| 20260902071149 | 20 | 59 | 3.2 | 4.8 | 0.00 | 0.00 | 0.00 | 98 | 1023.5 |
| 20260902070645 | 20 | 83 | 0.0 | 0.0 | 0.00 | 0.00 | 0.00 | 97 | 1023.5 |
| 20260902070144 | 21 | 69 | 1.6 | 3.2 | 0.00 | 0.00 | 0.00 | 97 | 1023.4 |
| 20260902065643 | 20 | 226 | 3.2 | 4.8 | 0.00 | 0.00 | 0.00 | 97 | 1023.4 |
| 20260902065139 | 20 | 100 | 1.6 | 3.2 | 0.00 | 0.00 | 0.00 | 97 | 1023.4 |
| 20260902064634 | 21 | 34 | 0.0 | 0.0 | 0.00 | 0.00 | 0.00 | 97 | 1023.4 |
| 20260902064130 | 21 | 90 | 0.0 | 0.0 | 0.00 | 0.00 | 0.00 | 97 | 1023.2 |
| 20260902063625 | 21 | 87 | 0.0 | 0.0 | 0.00 | 0.00 | 0.00 | 96 | 1023.4 |
| 20260902063120 | 21 | 302 | 0.0 | 0.0 | 0.00 | 0.00 | 0.00 | 97 | 1023.5 |
| 20260902062619 | 21 | 144 | 1.6 | 3.2 | 0.00 | 0.00 | 0.00 | 96 | 1023.5 |
| 20260902062115 | 21 | 250 | 3.2 | 3.2 | 0.00 | 0.00 | 0.00 | 97 | 1023.4 |
| 20260902061609 | 21 | 104 | 0.0 | 3.2 | 0.00 | 0.00 | 0.00 | 96 | 1023.3 |
| 20260902061104 | 21 | 349 | 3.2 | 3.2 | 0.00 | 0.00 | 0.00 | 96 | 1023.4 |
| 20260902060600 | 21 | 166 | 1.6 | 4.8 | 0.00 | 0.00 | 0.00 | 96 | 1023.5 |
| 20260902060057 | 21 | 228 | 1.6 | 4.8 | 0.00 | 0.00 | 0.00 | 96 | 1023.4 |
| 20260902055552 | 21 | 249 | 3.2 | 3.2 | 0.00 | 0.00 | 0.00 | 96 | 1023.6 |
| 20260902055047 | 21 | 102 | 1.6 | 1.6 | 0.00 | 0.00 | 0.00 | 96 | 1023.4 |
| 20260902054542 | 21 | 164 | 0.0 | 1.6 | 0.00 | 0.00 | 0.00 | 97 | 1023.5 |
| 20260902054038 | 21 | 232 | 0.0 | 3.2 | 0.00 | 0.00 | 0.00 | 97 | 1023.6 |
| 20260902053532 | 20 | 224 | 1.6 | 1.6 | 0.00 | 0.00 | 0.00 | 97 | 1023.4 |
| 20260902053027 | 20 | 200 | 1.6 | 4.8 | 0.00 | 0.00 | 0.00 | 97 | 1023.3 |
| 20260902052522 | 20 | 243 | 3.2 | 3.2 | 0.00 | 0.00 | 0.00 | 97 | 1023.2 |
| 20260902052018 | 20 | 205 | 1.6 | 1.6 | 0.00 | 0.00 | 0.00 | 97 | 1023.2 |
| 20260902051517 | 20 | 91 | 3.2 | 4.8 | 0.00 | 0.00 | 0.00 | 97 | 1023.2 |
| 20260902051016 | 21 | 285 | 0.0 | 0.0 | 0.00 | 0.00 | 0.00 | 97 | 1023.0 |
| 20260902050510 | 21 | 273 | 0.0 | 1.6 | 0.00 | 0.00 | 0.00 | 96 | 1023.0 |
| 20260902050008 | 21 | 235 | 3.2 | 4.8 | 0.00 | 0.00 | 0.00 | 96 | 1023.0 |
| 20260902045500 | 21 | 159 | 0.0 | 1.6 | 0.00 | 0.00 | 0.00 | 97 | 1023.2 |
| 20260902044957 | 20 | 120 | 0.0 | 0.0 | 0.00 | 0.00 | 0.00 | 98 | 1023.3 |
| 20260902044452 | 20 | 251 | 0.0 | 0.0 | 0.00 | 0.00 | 0.00 | 97 | 1023.0 |
| 20260902043947 | 21 | 129 | 0.0 | 1.6 | 0.00 | 0.00 | 0.00 | 97 | 1023.0 |
| 20260902043442 | 21 | 176 | 0.0 | 1.6 | 0.00 | 0.00 | 0.00 | 97 | 1023.0 |
| 20260902042937 | 21 | 221 | 0.0 | 1.6 | 0.00 | 0.00 | 0.00 | 97 | 1022.9 |
| 20260902042437 | 21 | 182 | 1.6 | 1.6 | 0.00 | 0.00 | 0.00 | 96 | 1022.9 |
| 20260902041932 | 21 | 240 | 0.0 | 3.2 | 0.00 | 0.00 | 0.00 | 95 | 1023.0 |
| 20260902041427 | 21 | 250 | 1.6 | 4.8 | 0.00 | 0.00 | 0.00 | 95 | 1022.8 |
| 20260902040926 | 21 | 198 | 0.0 | 4.8 | 0.00 | 0.00 | 0.00 | 97 | 1022.8 |
| 20260902040420 | 21 | 177 | 1.6 | 1.6 | 0.00 | 0.00 | 0.00 | 96 | 1022.9 |
| 20260902035920 | 21 | 219 | 0.0 | 0.0 | 0.00 | 0.00 | 0.00 | 95 | 1022.6 |
| 20260902035415 | 21 | 239 | 1.6 | 3.2 | 0.00 | 0.00 | 0.00 | 95 | 1022.7 |
| 20260902034914 | 21 | 225 | 1.6 | 3.2 | 0.00 | 0.00 | 0.00 | 95 | 1022.5 |
| 20260902034410 | 21 | 260 | 3.2 | 6.4 | 0.00 | 0.00 | 0.00 | 95 | 1022.4 |
| 20260902033908 | 21 | 227 | 0.0 | 1.6 | 0.00 | 0.00 | 0.00 | 96 | 1022.5 |
| 20260902033402 | 21 | 187 | 1.6 | 1.6 | 0.00 | 0.00 | 0.00 | 95 | 1022.4 |
| 20260902032901 | 22 | 253 | 3.2 | 6.4 | 0.00 | 0.00 | 0.00 | 94 | 1022.4 |
| 20260902032357 | 22 | 187 | 1.6 | 6.4 | 0.00 | 0.00 | 0.00 | 92 | 1022.6 |
| 20260902031857 | 21 | 192 | 1.6 | 3.2 | 0.00 | 0.00 | 0.00 | 94 | 1022.6 |
| 20260902031353 | 22 | 266 | 3.2 | 4.8 | 0.00 | 0.00 | 0.00 | 93 | 1022.5 |
| 20260902030843 | 22 | 197 | 1.6 | 1.6 | 0.00 | 0.00 | 0.00 | 92 | 1022.5 |
| 20260902030337 | 22 | 251 | 0.0 | 3.2 | 0.00 | 0.00 | 0.00 | 93 | 1022.6 |
| 20260902025836 | 22 | 226 | 6.4 | 6.4 | 0.00 | 0.00 | 0.00 | 93 | 1022.5 |
| 20260902025332 | 22 | 202 | 6.4 | 9.7 | 0.00 | 0.00 | 0.00 | 92 | 1022.6 |
| 20260902024832 | 22 | 242 | 4.8 | 6.4 | 0.00 | 0.00 | 0.00 | 92 | 1022.5 |
| 20260902024327 | 21 | 236 | 0.0 | 1.6 | 0.00 | 0.00 | 0.00 | 94 | 1022.8 |
| 20260902023822 | 21 | 209 | 1.6 | 3.2 | 0.00 | 0.00 | 0.00 | 95 | 1022.6 |
| 20260902023319 | 21 | 60 | 3.2 | 4.8 | 0.00 | 0.00 | 0.00 | 95 | 1022.8 |
| 20260902022817 | 21 | 288 | 1.6 | 4.8 | 0.00 | 0.00 | 0.00 | 95 | 1022.9 |
| 20260902022313 | 21 | 93 | 0.0 | 4.8 | 0.00 | 0.00 | 0.00 | 95 | 1022.7 |
| 20260902021809 | 21 | 252 | 4.8 | 6.4 | 0.00 | 0.00 | 0.00 | 95 | 1022.9 |
| 20260902021309 | 21 | 184 | 0.0 | 1.6 | 0.00 | 0.00 | 0.00 | 95 | 1022.7 |
| 20260902020804 | 21 | 198 | 0.0 | 1.6 | 0.00 | 0.00 | 0.00 | 95 | 1022.7 |
| 20260902020300 | 21 | 222 | 0.0 | 0.0 | 0.00 | 0.00 | 0.00 | 95 | 1022.8 |
| 20260902015755 | 21 | 130 | 0.0 | 1.6 | 0.00 | 0.00 | 0.00 | 95 | 1022.8 |
| 20260902015252 | 21 | 128 | 1.6 | 3.2 | 0.00 | 0.00 | 0.00 | 96 | 1022.8 |
| 20260902014747 | 21 | 247 | 0.0 | 1.6 | 0.00 | 0.00 | 0.00 | 95 | 1022.7 |
| 20260902014244 | 21 | 249 | 1.6 | 3.2 | 0.00 | 0.00 | 0.00 | 95 | 1022.8 |
| 20260902013742 | 21 | 57 | 0.0 | 0.0 | 0.00 | 0.00 | 0.00 | 95 | 1022.7 |
| 20260902013238 | 21 | 359 | 0.0 | 3.2 | 0.00 | 0.00 | 0.00 | 94 | 1022.6 |
| 20260902012733 | 22 | 238 | 0.0 | 0.0 | 0.00 | 0.00 | 0.00 | 93 | 1022.6 |
| 20260902012229 | 22 | 203 | 1.6 | 4.8 | 0.00 | 0.00 | 0.00 | 92 | 1022.6 |
| 20260902011724 | 22 | 245 | 1.6 | 1.6 | 0.00 | 0.00 | 0.00 | 92 | 1022.5 |
| 20260902011223 | 22 | 141 | 0.0 | 3.2 | 0.00 | 0.00 | 0.00 | 93 | 1022.3 |
| 20260902010717 | 22 | 228 | 3.2 | 3.2 | 0.00 | 0.00 | 0.00 | 91 | 1022.5 |
| 20260902010213 | 22 | 100 | 3.2 | 4.8 | 0.00 | 0.00 | 0.00 | 91 | 1022.3 |
| 20260902005711 | 22 | 161 | 1.6 | 3.2 | 0.00 | 0.00 | 0.00 | 91 | 1022.3 |
| 20260902005207 | 23 | 164 | 1.6 | 4.8 | 0.00 | 0.00 | 0.00 | 89 | 1022.1 |
| 20260902004707 | 22 | 151 | 0.0 | 3.2 | 0.00 | 0.00 | 0.00 | 91 | 1022.2 |
| 20260902004202 | 22 | 120 | 3.2 | 3.2 | 0.00 | 0.00 | 0.00 | 91 | 1022.1 |
| 20260902003658 | 22 | 166 | 1.6 | 3.2 | 0.00 | 0.00 | 0.00 | 93 | 1022.2 |
| 20260902003153 | 21 | 102 | 0.0 | 3.2 | 0.00 | 0.00 | 0.00 | 94 | 1021.9 |
| 20260902002648 | 22 | 239 | 1.6 | 1.6 | 0.00 | 0.00 | 0.00 | 94 | 1021.9 |
| 20260902002142 | 22 | 79 | 0.0 | 3.2 | 0.00 | 0.00 | 0.00 | 93 | 1021.9 |
| 20260902001637 | 22 | 71 | 0.0 | 0.0 | 0.00 | 0.00 | 0.00 | 94 | 1021.9 |
| 20260902001132 | 22 | 99 | 1.6 | 3.2 | 0.00 | 0.00 | 0.00 | 94 | 1021.7 |
| 20260902000627 | 22 | 42 | 1.6 | 3.2 | 0.00 | 0.00 | 0.00 | 92 | 1021.7 |
| 20260902000122 | 22 | 215 | 0.0 | 0.0 | 0.00 | 0.00 | 0.00 | 90 | 1021.8 |
| 20260901235622 | 23 | 148 | 1.6 | 3.2 | 0.00 | 0.00 | 0.00 | 90 | 1021.7 |
| 20260901235118 | 23 | 138 | 1.6 | 3.2 | 0.00 | 0.00 | 0.00 | 91 | 1021.7 |
| 20260901234616 | 23 | 107 | 3.2 | 3.2 | 0.00 | 0.00 | 0.00 | 86 | 1021.7 |
| 20260901234112 | 23 | 86 | 3.2 | 3.2 | 0.00 | 0.00 | 0.00 | 88 | 1021.8 |
| 20260901233607 | 23 | 167 | 0.0 | 0.0 | 0.00 | 0.00 | 0.00 | 89 | 1021.7 |
| 20260901233103 | 23 | 159 | 0.0 | 0.0 | 0.00 | 0.00 | 0.00 | 87 | 1021.6 |
| 20260901232557 | 23 | 169 | 1.6 | 3.2 | 0.00 | 0.00 | 0.00 | 87 | 1021.8 |
| 20260901232052 | 23 | 68 | 0.0 | 1.6 | 0.00 | 0.00 | 0.00 | 86 | 1021.7 |
| 20260901231549 | 24 | 123 | 0.0 | 1.6 | 0.00 | 0.00 | 0.00 | 86 | 1021.6 |
| 20260901231045 | 25 | 256 | 0.0 | 1.6 | 0.00 | 0.00 | 0.00 | 84 | 1021.6 |
| 20260901230540 | 25 | 93 | 1.6 | 1.6 | 0.00 | 0.00 | 0.00 | 83 | 1021.7 |
| 20260901230035 | 26 | 179 | 1.6 | 1.6 | 0.00 | 0.00 | 0.00 | 79 | 1021.8 |
| 20260901225530 | 26 | 86 | 3.2 | 12.9 | 0.00 | 0.00 | 0.00 | 71 | 1021.7 |
| 20260901225029 | 26 | 179 | 3.2 | 4.8 | 0.00 | 0.00 | 0.00 | 77 | 1021.8 |
| 20260901224525 | 27 | 225 | 0.0 | 3.2 | 0.00 | 0.00 | 0.00 | 75 | 1021.7 |
| 20260901224022 | 26 | 87 | 0.0 | 1.6 | 0.00 | 0.00 | 0.00 | 76 | 1021.8 |
| 20260901223516 | 26 | 141 | 0.0 | 1.6 | 0.00 | 0.00 | 0.00 | 78 | 1021.7 |
| 20260901223011 | 26 | 150 | 0.0 | 3.2 | 0.00 | 0.00 | 0.00 | 70 | 1021.7 |
| 20260901222508 | 27 | 160 | 0.0 | 0.0 | 0.00 | 0.00 | 0.00 | 74 | 1021.5 |
| 20260901222003 | 28 | 195 | 1.6 | 3.2 | 0.00 | 0.00 | 0.00 | 72 | 1021.6 |
| 20260901221459 | 28 | 99 | 6.4 | 6.4 | 0.00 | 0.00 | 0.00 | 63 | 1021.7 |
| 20260901220954 | 29 | 217 | 1.6 | 3.2 | 0.00 | 0.00 | 0.00 | 64 | 1021.5 |
| 20260901220453 | 29 | 248 | 4.8 | 9.7 | 0.00 | 0.00 | 0.00 | 65 | 1021.5 |
| 20260901215952 | 28 | 159 | 0.0 | 3.2 | 0.00 | 0.00 | 0.00 | 68 | 1021.7 |
| 20260901215450 | 29 | 216 | 4.8 | 4.8 | 0.00 | 0.00 | 0.00 | 63 | 1021.7 |
| 20260901214950 | 29 | 144 | 3.2 | 4.8 | 0.00 | 0.00 | 0.00 | 65 | 1021.8 |
| 20260901214448 | 29 | 148 | 4.8 | 6.4 | 0.00 | 0.00 | 0.00 | 61 | 1021.8 |
| 20260901213943 | 29 | 88 | 3.2 | 9.7 | 0.00 | 0.00 | 0.00 | 66 | 1021.7 |
| 20260901213438 | 29 | 167 | 3.2 | 4.8 | 0.00 | 0.00 | 0.00 | 70 | 1021.8 |
| 20260901212937 | 30 | 216 | 0.0 | 3.2 | 0.00 | 0.00 | 0.00 | 64 | 1021.7 |
| 20260901212433 | 30 | 242 | 0.0 | 4.8 | 0.00 | 0.00 | 0.00 | 61 | 1021.7 |
| 20260901211930 | 30 | 228 | 3.2 | 4.8 | 0.00 | 0.00 | 0.00 | 60 | 1021.6 |
| 20260901211425 | 30 | 347 | 3.2 | 6.4 | 0.00 | 0.00 | 0.00 | 61 | 1021.6 |
| 20260901210920 | 29 | 184 | 0.0 | 3.2 | 0.00 | 0.00 | 0.00 | 67 | 1021.9 |
| 20260901210417 | 28 | 88 | 1.6 | 1.6 | 0.00 | 0.00 | 0.00 | 73 | 1021.6 |
| 20260901205913 | 28 | 85 | 4.8 | 6.4 | 0.00 | 0.00 | 0.00 | 66 | 1021.7 |
| 20260901205412 | 28 | 37 | 4.8 | 9.7 | 0.00 | 0.00 | 0.00 | 69 | 1021.6 |
| 20260901204908 | 28 | 59 | 0.0 | 1.6 | 0.00 | 0.00 | 0.00 | 66 | 1021.8 |
| 20260901204404 | 29 | 353 | 3.2 | 6.4 | 0.00 | 0.00 | 0.00 | 65 | 1021.7 |
| 20260901203903 | 30 | 16 | 3.2 | 4.8 | 0.00 | 0.00 | 0.00 | 63 | 1021.7 |
| 20260901203358 | 29 | 28 | 1.6 | 1.6 | 0.00 | 0.00 | 0.00 | 65 | 1021.7 |
| 20260901202853 | 29 | 71 | 1.6 | 9.7 | 0.00 | 0.00 | 0.00 | 64 | 1021.7 |
| 20260901202348 | 30 | 10 | 3.2 | 12.9 | 0.00 | 0.00 | 0.00 | 64 | 1021.6 |
| 20260901201844 | 29 | 352 | 3.2 | 3.2 | 0.00 | 0.00 | 0.00 | 63 | 1021.7 |
| 20260901201344 | 28 | 35 | 4.8 | 6.4 | 0.00 | 0.00 | 0.00 | 66 | 1021.7 |
| 20260901200838 | 28 | 71 | 3.2 | 3.2 | 0.00 | 0.00 | 0.00 | 66 | 1021.9 |
| 20260901200333 | 28 | 173 | 6.4 | 9.7 | 0.00 | 0.00 | 0.00 | 67 | 1022.1 |
| 20260901195832 | 28 | 100 | 3.2 | 6.4 | 0.00 | 0.00 | 0.00 | 74 | 1022.3 |
| 20260901195330 | 28 | 50 | 0.0 | 0.0 | 0.00 | 0.00 | 0.00 | 73 | 1022.3 |
| 20260901194826 | 27 | 69 | 1.6 | 1.6 | 0.00 | 0.00 | 0.00 | 74 | 1022.1 |
| 20260901194320 | 27 | 14 | 0.0 | 1.6 | 0.00 | 0.00 | 0.00 | 70 | 1022.2 |
| 20260901193817 | 27 | 119 | 4.8 | 6.4 | 0.00 | 0.00 | 0.00 | 73 | 1022.4 |
| 20260901193315 | 28 | 90 | 1.6 | 3.2 | 0.00 | 0.00 | 0.00 | 70 | 1022.5 |
| 20260901192810 | 28 | 78 | 6.4 | 6.4 | 0.00 | 0.00 | 0.00 | 68 | 1022.5 |
| 20260901192306 | 28 | 80 | 1.6 | 4.8 | 0.00 | 0.00 | 0.00 | 69 | 1022.8 |
| 20260901191801 | 28 | 125 | 4.8 | 11.3 | 0.00 | 0.00 | 0.00 | 63 | 1022.9 |
| 20260901191252 | 28 | 35 | 3.2 | 6.4 | 0.00 | 0.00 | 0.00 | 64 | 1022.9 |
| 20260901190747 | 29 | 282 | 1.6 | 4.8 | 0.00 | 0.00 | 0.00 | 63 | 1022.9 |
| 20260901190241 | 29 | 286 | 1.6 | 4.8 | 0.00 | 0.00 | 0.00 | 63 | 1022.9 |
| 20260901185740 | 28 | 10 | 0.0 | 3.2 | 0.00 | 0.00 | 0.00 | 63 | 1023.1 |
| 20260901185238 | 29 | 31 | 9.7 | 11.3 | 0.00 | 0.00 | 0.00 | 63 | 1023.1 |
| 20260901184734 | 29 | 285 | 0.0 | 4.8 | 0.00 | 0.00 | 0.00 | 61 | 1023.1 |
| 20260901184230 | 29 | 287 | 1.6 | 12.9 | 0.00 | 0.00 | 0.00 | 59 | 1023.1 |
| 20260901183725 | 29 | 297 | 8.0 | 9.7 | 0.00 | 0.00 | 0.00 | 61 | 1023.4 |
| 20260901183225 | 29 | 348 | 3.2 | 6.4 | 0.00 | 0.00 | 0.00 | 62 | 1023.4 |
| 20260901182721 | 29 | 147 | 4.8 | 14.5 | 0.00 | 0.00 | 0.00 | 59 | 1023.3 |
| 20260901182214 | 29 | 120 | 6.4 | 17.7 | 0.00 | 0.00 | 0.00 | 62 | 1023.5 |
| 20260901181709 | 30 | 254 | 3.2 | 11.3 | 0.00 | 0.00 | 0.00 | 62 | 1023.6 |
| 20260901181203 | 29 | 295 | 4.8 | 6.4 | 0.00 | 0.00 | 0.00 | 61 | 1023.6 |
| 20260901180657 | 30 | 72 | 4.8 | 9.7 | 0.00 | 0.00 | 0.00 | 56 | 1023.2 |
| 20260901180151 | 30 | 276 | 3.2 | 4.8 | 0.00 | 0.00 | 0.00 | 59 | 1023.5 |
| 20260901175650 | 29 | 46 | 0.0 | 1.6 | 0.00 | 0.00 | 0.00 | 63 | 1023.5 |
| 20260901175150 | 29 | 283 | 0.0 | 0.0 | 0.00 | 0.00 | 0.00 | 61 | 1023.5 |
| 20260901174646 | 29 | 351 | 1.6 | 3.2 | 0.00 | 0.00 | 0.00 | 62 | 1023.5 |
| 20260901174142 | 29 | 290 | 6.4 | 9.7 | 0.00 | 0.00 | 0.00 | 65 | 1023.7 |
| 20260901173637 | 30 | 225 | 1.6 | 3.2 | 0.00 | 0.00 | 0.00 | 61 | 1023.6 |
| 20260901173132 | 30 | 287 | 1.6 | 4.8 | 0.00 | 0.00 | 0.00 | 57 | 1023.2 |
| 20260901172628 | 30 | 244 | 4.8 | 9.7 | 0.00 | 0.00 | 0.00 | 61 | 1023.4 |
| 20260901172126 | 30 | 276 | 4.8 | 6.4 | 0.00 | 0.00 | 0.00 | 60 | 1023.2 |
| 20260901171625 | 30 | 302 | 3.2 | 6.4 | 0.00 | 0.00 | 0.00 | 58 | 1023.4 |
| 20260901171120 | 30 | 3 | 0.0 | 3.2 | 0.00 | 0.00 | 0.00 | 61 | 1023.2 |
| 20260901170619 | 30 | 209 | 9.7 | 11.3 | 0.00 | 0.00 | 0.00 | 63 | 1023.2 |
| 20260901170114 | 30 | 256 | 4.8 | 14.5 | 0.00 | 0.00 | 0.00 | 64 | 1023.2 |
| 20260901165613 | 30 | 267 | 1.6 | 6.4 | 0.00 | 0.00 | 0.00 | 62 | 1023.1 |
| 20260901165109 | 29 | 22 | 8.0 | 9.7 | 0.00 | 0.00 | 0.00 | 64 | 1023.0 |
| 20260901164604 | 29 | 31 | 3.2 | 4.8 | 0.00 | 0.00 | 0.00 | 66 | 1023.0 |
| 20260901164059 | 28 | 78 | 0.0 | 9.7 | 0.00 | 0.00 | 0.00 | 65 | 1023.1 |
| 20260901163554 | 28 | 356 | 0.0 | 11.3 | 0.00 | 0.00 | 0.00 | 66 | 1023.1 |
| 20260901163054 | 28 | 55 | 9.7 | 12.9 | 0.00 | 0.00 | 0.00 | 66 | 1022.8 |
| 20260901162549 | 28 | 70 | 3.2 | 3.2 | 0.00 | 0.00 | 0.00 | 71 | 1023.0 |
| 20260901162049 | 27 | 88 | 3.2 | 4.8 | 0.00 | 0.00 | 0.00 | 68 | 1023.1 |
| 20260901161547 | 28 | 27 | 4.8 | 6.4 | 0.00 | 0.00 | 0.00 | 68 | 1023.1 |
| 20260901161047 | 28 | 93 | 4.8 | 9.7 | 0.00 | 0.00 | 0.00 | 69 | 1023.1 |
| 20260901160543 | 28 | 42 | 6.4 | 6.4 | 0.00 | 0.00 | 0.00 | 70 | 1023.0 |
| 20260901160033 | 28 | 281 | 4.8 | 6.4 | 0.00 | 0.00 | 0.00 | 66 | 1023.1 |
| 20260901155531 | 28 | 98 | 6.4 | 9.7 | 0.00 | 0.00 | 0.00 | 70 | 1023.0 |
| 20260901155027 | 28 | 145 | 1.6 | 3.2 | 0.00 | 0.00 | 0.00 | 76 | 1023.1 |
| 20260901154527 | 28 | 77 | 0.0 | 1.6 | 0.00 | 0.00 | 0.00 | 68 | 1023.1 |
| 20260901154022 | 27 | 81 | 4.8 | 6.4 | 0.00 | 0.00 | 0.00 | 74 | 1023.2 |
| 20260901153516 | 27 | 116 | 9.7 | 12.9 | 0.00 | 0.00 | 0.00 | 70 | 1023.1 |
| 20260901153010 | 27 | 100 | 1.6 | 1.6 | 0.00 | 0.00 | 0.00 | 69 | 1023.2 |
| 20260901152505 | 27 | 62 | 1.6 | 6.4 | 0.00 | 0.00 | 0.00 | 72 | 1023.5 |
| 20260901152004 | 27 | 50 | 9.7 | 11.3 | 0.00 | 0.00 | 0.00 | 74 | 1023.4 |
| 20260901151500 | 27 | 26 | 3.2 | 4.8 | 0.00 | 0.00 | 0.00 | 74 | 1023.2 |
| 20260901150959 | 27 | 63 | 3.2 | 4.8 | 0.00 | 0.00 | 0.00 | 74 | 1023.3 |
| 20260901150457 | 28 | 38 | 0.0 | 4.8 | 0.00 | 0.00 | 0.00 | 71 | 1023.4 |
| 20260901145954 | 27 | 152 | 0.0 | 3.2 | 0.00 | 0.00 | 0.00 | 71 | 1023.4 |
| 20260901145449 | 27 | 67 | 3.2 | 9.7 | 0.00 | 0.00 | 0.00 | 73 | 1023.5 |
| 20260901144949 | 27 | 109 | 3.2 | 3.2 | 0.00 | 0.00 | 0.00 | 75 | 1023.4 |
| 20260901144444 | 27 | 352 | 1.6 | 1.6 | 0.00 | 0.00 | 0.00 | 75 | 1023.6 |
| 20260901143940 | 27 | 80 | 1.6 | 4.8 | 0.00 | 0.00 | 0.00 | 75 | 1023.5 |
| 20260901143436 | 27 | 17 | 0.0 | 9.7 | 0.00 | 0.00 | 0.00 | 75 | 1023.5 |
| 20260901142932 | 27 | 41 | 1.6 | 3.2 | 0.00 | 0.00 | 0.00 | 74 | 1023.7 |
| 20260901142432 | 27 | 48 | 4.8 | 6.4 | 0.00 | 0.00 | 0.00 | 77 | 1023.7 |